SCP
0 1 1 1 1 1 1 0 1 1 2 3 4 5 5 5 6 7 6 5 4 3 2 2 3 4 6 5 4 3 3 2 2 1 1 1 1 1 1 1 1 1 0 0
0 0 1 1 1 1 1 1 1 2 3 3 4 4 4 4 5 6 6 6 4 3 2 2 2 4 4 4 3 3 3 2 2 1 1 1 1 1 1 1 1 1 1 1
0 0 1 1 1 1 1 1 2 2 3 3 3 3 3 3 4 4 5 5 4 3 2 2 2 2 2 2 2 2 3 3 2 2 2 2 1 1 1 1 1 1 1 1
0 1 1 1 1 1 1 2 2 2 2 2 3 4 4 3 3 3 3 4 4 3 2 2 2 1 1 2 2 2 2 3 3 3 3 3 2 2 2 1 1 1 1 1
0 1 1 1 1 1 2 2 2 1 1 2 4 5 5 5 4 4 3 3 3 3 3 2 2 2 2 2 2 2 2 2 2 3 3 3 3 3 3 2 2 2 1 1
0 1 1 1 1 1 1 1 1 1 1 2 3 4 4 5 5 4 4 4 4 3 3 3 3 2 2 2 2 2 2 2 2 3 3 3 4 4 4 4 3 2 2 1
0 0 1 1 1 1 1 1 2 2 2 2 2 3 3 3 3 3 4 4 3 3 4 3 3 3 3 2 2 2 2 3 3 3 3 3 3 4 4 5 4 3 2 2
0 0 1 1 1 1 1 2 2 2 2 2 2 2 2 1 1 2 2 3 3 3 4 4 3 3 3 2 1 2 2 2 3 3 3 3 2 3 4 5 4 3 3 2
1 1 1 1 1 1 1 1 2 1 1 1 2 1 1 1 2 3 3 3 3 3 3 3 3 3 3 2 1 1 1 2 2 3 3 3 2 2 3 4 4 4 3 2
1 1 1 1 1 1 1 1 1 1 1 1 1 1 1 1 2 3 3 3 3 3 3 3 2 2 2 2 2 1 1 2 2 2 2 2 2 2 2 3 3 4 3 3
1 1 1 1 1 1 1 1 1 1 1 1 1 1 1 1 1 1 2 2 2 2 2 2 2 2 2 2 2 1 1 2 2 2 2 2 2 2 2 2 2 2 3 3
1 1 1 1 1 1 1 1 1 0 0 0 1 1 1 1 1 0 1 1 1 1 2 2 2 2 2 2 2 1 2 2 2 2 2 2 2 2 1 1 1 1 1 2
1 1 0 0 0 0 1 0 0 0 0 0 1 1 1 1 0 0 0 1 1 1 1 1 2 2 1 1 1 1 2 2 2 2 1 1 1 2 1 1 0 0 0 0
1 1 0 0 0 0 0 0 0 0 0 0 1 1 1 0 0 0 0 0 0 0 0 1 1 1 1 1 1 1 1 2 1 1 1 1 1 1 1 1 1 0 0 0
1 1 0 0 0 0 0 0 0 0 0 1 1 1 1 0 0 0 0 0 0 0 0 0 1 0 0 0 1 1 1 1 1 1 1 1 1 1 1 1 1 1 0 0
1 1 0 0 0 0 0 0 0 0 0 1 1 1 1 0 0 0 0 0 0 0 0 0 0 0 0 0 0 1 1 1 0 0 0 1 1 1 1 1 1 1 1 0
0 0 1 0 0 0 0 0 0 0 1 1 1 1 0 0 0 0 0 0 0 0 0 0 0 0 0 0 0 0 0 0 0 0 0 0 0 0 0 1 1 1 1 1
0 0 0 0 0 0 0 0 0 0 0 1 1 0 0 0 0 0 0 0 0 0 0 0 0 0 0 0 0 0 0 0 0 0 0 0 0 0 0 0 0 1 1 1
0 0 0 0 0 0 0 0 0 0 0 0 0 0 0 0 0 0 0 0 0 0 0 0 0 0 0 0 0 0 0 0 0 0 0 0 0 0 0 0 0 1 1 1
0 0 0 0 0 0 0 0 0 0 0 0 0 0 0 0 0 0 0 0 0 0 0 0 0 0 0 0 0 0 0 0 0 0 0 0 0 0 0 0 0 0 1 1
0 0 0 0 0 0 0 0 0 0 0 0 0 0 0 0 0 0 0 0 0 0 0 0 0 0 0 0 0 0 0 0 0 0 0 0 0 0 0 0 0 0 0 1
0 0 0 0 0 0 0 0 0 0 0 0 0 0 0 0 0 0 0 0 0 0 0 0 0 0 0 0 0 0 0 0 0 0 0 0 0 0 0 0 0 0 0 0
0 0 0 0 0 0 0 0 0 0 0 0 0 0 0 0 0 0 0 0 0 0 0 0 0 0 0 0 0 0 0 0 0 0 0 0 0 0 0 0 0 0 0 0
0 0 0 0 0 0 0 0 0 0 0 0 0 0 0 0 0 0 0 0 0 0 0 0 0 0 0 0 0 0 0 0 0 0 0 0 0 0 0 0 0 0 0 0
0 0 0 0 0 0 0 0 0 0 0 0 0 0 0 0 0 0 0 0 0 0 0 0 0 0 0 0 0 0 0 0 0 0 0 0 0 0 0 0 0 0 0 0
0 0 0 0 0 0 0 0 0 0 0 0 0 0 0 0 0 0 0 0 0 0 0 0 0 0 0 0 0 0 0 0 0 0 0 0 0 0 0 0 0 0 0 0
0 0 0 0 0 0 0 0 0 0 0 0 0 0 0 0 0 0 0 0 0 0 0 0 0 0 0 0 0 0 0 0 0 0 0 0 0 0 0 0 0 0 0 0
Wind_Speed
4 5 4 3 2 3 4 6 6 6 6 4 4 4 2 2 2 3 2 3 4 4 4 5 6 7 8 9 9 9 9 9 9 8 8 8 8 8 8 8 9 8 8 8
2 3 5 5 4 4 4 5 7 8 4 2 2 4 4 3 3 3 2 2 3 4 5 5 6 7 7 8 9 9 10 10 9 8 8 9 8 8 8 8 7 8 8 8
0 1 5 2 1 3 4 4 7 5 4 4 4 4 3 3 4 4 3 2 1 3 4 5 5 6 7 8 8 9 9 9 9 9 9 9 9 8 9 9 8 8 8 8
3 4 3 4 0 6 9 6 6 7 6 6 6 3 3 4 5 4 3 2 2 1 1 2 2 3 5 5 7 9 9 9 9 9 9 9 9 9 9 7 8 8 8 8
4 3 1 1 2 3 7 5 4 9 7 6 6 7 6 5 5 3 2 1 1 1 1 1 1 2 4 4 5 7 8 8 10 10 10 9 9 9 8 7 7 7 7 8
4 4 3 3 3 1 9 4 2 5 5 4 4 4 1 3 5 5 4 3 3 3 2 1 1 1 4 4 4 5 6 7 7 8 10 10 10 8 6 7 7 7 6 7
4 3 1 4 5 2 5 4 1 3 4 4 3 3 2 3 4 5 5 5 5 3 2 1 1 1 3 3 4 5 4 5 6 7 8 9 8 7 6 7 7 7 7 6
3 3 3 4 3 3 4 3 4 5 5 7 6 5 5 5 5 6 6 7 6 5 4 3 2 2 2 1 2 2 3 4 5 5 6 6 6 6 6 7 7 7 5 5
3 3 0 3 4 4 5 6 5 5 5 7 7 6 6 5 5 6 7 6 6 5 5 4 3 3 2 1 0 2 3 4 4 5 5 5 6 6 5 6 6 5 5 4
5 4 4 6 6 6 7 8 7 6 6 7 8 7 6 6 6 6 7 6 6 6 6 6 5 4 3 2 0 1 3 3 3 4 4 4 4 4 4 5 5 5 5 4
5 4 6 6 6 6 8 8 9 9 8 8 9 9 7 6 6 6 6 6 7 7 7 6 5 5 5 4 3 2 2 3 3 4 4 4 4 3 3 2 3 5 4 4
4 4 5 4 3 6 8 7 8 9 9 8 8 8 8 6 5 6 6 6 7 8 7 7 7 7 7 6 4 4 4 3 3 3 4 5 5 6 8 6 7 6 5 5
5 5 7 6 6 6 7 8 8 9 9 8 7 7 7 7 6 6 7 8 8 8 7 7 8 8 8 7 5 5 4 4 4 4 4 4 4 5 5 6 9 9 7 6
8 8 8 7 7 6 9 10 10 10 9 8 7 7 7 8 7 8 7 7 7 7 8 8 9 9 8 6 6 6 5 6 5 4 4 4 4 4 4 5 4 4 6 7
6 7 8 9 9 9 9 10 10 9 8 8 7 7 7 8 8 7 6 6 7 8 9 9 10 9 8 7 7 6 5 5 4 4 4 5 5 4 4 4 4 4 3 4
7 9 10 10 10 9 9 9 9 7 7 7 7 7 7 7 7 7 6 6 8 8 8 8 9 8 7 8 8 6 6 9 8 5 5 5 5 5 4 4 4 4 3 2
9 8 9 9 8 8 7 7 7 7 6 7 6 6 7 7 7 7 6 6 7 7 7 8 7 7 8 8 8 6 6 7 10 7 6 6 5 5 4 4 4 4 3 4
6 7 8 9 9 8 7 7 7 7 6 6 7 7 7 7 7 6 5 5 7 8 8 7 7 8 9 9 8 6 6 6 7 7 6 6 6 5 5 5 5 5 4 5
8 8 9 10 9 8 7 7 6 6 6 6 7 7 7 6 6 5 5 6 7 7 6 6 9 9 8 9 9 6 6 7 7 7 6 7 7 6 6 5 5 5 5 4
8 9 10 10 9 8 8 6 6 6 6 6 7 7 7 6 5 6 6 6 3 2 3 5 6 6 6 7 9 6 7 7 7 6 6 6 6 6 5 5 5 5 5 4
10 10 10 9 8 8 7 7 8 7 6 7 8 8 7 6 5 5 6 5 4 4 5 7 5 4 5 6 8 5 6 6 6 5 5 5 5 5 5 5 5 4 4 4
8 9 9 9 9 8 6 6 7 8 8 7 8 8 8 7 6 6 5 3 3 5 5 4 4 7 8 9 6 6 6 6 5 5 5 5 5 5 5 5 4 4 4 3
7 7 8 8 8 8 7 7 7 8 8 8 7 7 7 5 3 4 3 2 3 7 5 5 7 11 11 7 6 6 6 6 5 5 5 5 5 4 4 4 4 4 4 4
7 7 6 6 8 8 8 6 7 6 7 7 6 7 6 5 4 3 3 4 7 7 5 6 10 11 9 5 5 5 5 5 5 5 5 5 5 5 5 5 4 4 5 5
7 7 7 8 7 6 6 7 8 8 7 6 6 5 4 4 4 3 3 5 7 7 6 8 11 10 7 5 5 5 5 5 5 4 5 4 4 4 4 4 4 4 4 4
6 6 5 6 5 5 5 6 6 5 5 5 4 4 4 4 5 4 4 5 6 7 5 5 6 7 5 5 5 5 5 5 6 5 5 4 5 5 4 5 6 4 4 4
7 6 5 5 5 4 5 5 5 5 4 5 5 4 4 4 4 4 4 4 4 4 4 4 5 5 5 5 5 5 5 5 5 5 4 4 4 4 4 5 4 4 4 4
Wind_Direction
167 161 122 110 101 98 122 153 153 168 152 177 166 151 165 160 115 99 128 166 168 174 177 183 186 185 183 181 178 176 174 178 187 187 180 179 181 182 180 181 182 179 178 178
68 105 91 70 56 77 89 113 120 118 112 140 133 98 85 75 82 76 77 164 164 164 168 184 187 183 184 187 183 176 180 183 182 181 181 182 182 181 180 182 180 176 180 179
150 67 75 56 27 88 89 103 129 139 167 137 107 94 102 87 84 70 40 27 128 177 183 190 193 185 184 188 181 179 183 184 181 182 185 186 185 182 184 183 180 182 184 183
97 72 136 238 298 109 99 80 98 106 106 108 113 105 81 82 86 72 65 46 19 351 217 201 185 176 176 176 178 182 185 186 187 189 190 187 183 186 188 184 184 186 187 188
101 113 127 321 10 112 112 68 76 110 108 110 116 85 55 45 64 60 36 33 20 330 252 144 138 168 167 164 175 182 189 193 192 190 189 187 189 190 187 183 185 187 186 186
113 120 176 249 312 74 101 80 10 103 114 122 100 87 54 22 34 36 24 28 28 3 9 41 3 160 159 167 175 191 196 196 192 189 186 187 190 188 182 181 186 185 189 191
122 125 218 287 301 31 113 184 188 99 104 97 90 131 128 37 32 28 24 22 25 20 18 16 357 122 149 170 195 202 194 183 182 189 191 188 185 183 179 181 181 184 189 194
122 130 231 317 39 96 152 143 104 92 95 99 101 92 75 55 36 30 27 24 22 24 28 26 43 87 123 180 223 196 176 174 177 179 184 181 175 181 179 177 178 183 185 193
131 145 139 26 88 100 119 112 101 98 96 103 94 82 71 60 48 40 34 26 20 30 37 33 37 53 71 341 304 170 167 176 182 177 179 173 169 175 171 173 176 183 181 189
90 83 71 63 72 70 81 92 97 100 97 97 96 89 74 60 51 42 37 30 27 31 39 33 28 32 16 350 1 141 165 174 170 163 161 156 151 162 166 173 178 179 180 184
96 120 85 62 68 79 84 88 89 85 86 92 96 89 82 68 54 47 42 35 36 36 36 31 26 28 17 12 35 89 120 135 136 133 133 123 105 95 126 133 176 171 176 173
166 179 140 140 113 98 94 93 97 97 88 78 86 91 84 72 60 55 48 41 40 36 32 30 33 31 19 14 34 69 91 97 108 112 114 116 117 97 66 78 82 97 117 138
135 126 118 118 103 96 103 99 95 95 96 91 82 86 85 76 60 56 52 44 41 38 33 33 35 30 16 12 26 52 78 90 93 100 108 113 118 123 112 74 68 71 80 106
115 113 105 104 103 100 102 99 94 88 83 85 88 86 83 78 69 60 52 45 42 42 38 37 40 29 13 17 38 55 65 78 89 97 100 102 106 111 119 122 106 74 56 69
87 109 119 113 108 104 100 99 94 88 85 81 87 88 86 83 75 62 50 45 47 46 39 37 37 24 11 22 43 52 61 68 78 84 87 90 91 92 93 99 105 104 87 68
105 106 110 110 113 113 110 108 106 100 94 93 90 90 91 89 80 67 53 49 53 45 35 37 33 18 17 29 42 48 57 71 76 79 83 84 86 90 90 90 92 92 88 83
120 126 126 123 119 118 116 115 114 111 106 105 102 100 94 87 79 67 55 49 55 48 38 37 30 23 28 35 44 49 52 63 71 71 72 76 78 80 82 84 86 83 73 65
124 127 132 131 125 118 114 112 109 107 108 110 105 98 93 93 92 82 67 58 55 47 35 30 33 36 36 38 46 49 54 59 63 67 67 68 70 69 74 75 75 77 70 66
111 114 119 121 120 119 117 117 116 110 107 110 106 101 98 95 94 89 76 64 57 44 15 20 38 44 41 43 52 53 55 59 62 63 67 69 68 65 66 70 71 69 67 66
104 106 111 113 114 118 119 119 114 107 108 109 104 99 95 90 88 85 76 64 46 26 10 30 38 37 35 45 56 56 59 62 64 64 64 65 67 66 65 68 70 70 68 66
108 108 113 116 116 114 115 117 114 110 106 104 103 102 99 90 82 81 80 63 11 20 38 41 42 37 41 52 57 60 62 63 64 65 67 68 68 67 64 63 63 64 65 65
104 106 111 113 112 110 108 108 107 106 103 100 98 97 93 86 80 71 65 67 35 47 51 41 45 55 58 57 57 59 62 63 62 65 69 70 71 71 67 64 63 61 58 61
101 103 107 110 113 111 105 104 104 103 100 98 97 96 96 93 90 93 73 23 46 57 57 52 60 62 59 56 55 56 60 61 61 64 68 71 71 72 72 68 61 60 58 54
97 97 101 104 104 101 98 100 99 95 95 93 94 99 101 93 69 59 85 71 66 66 61 59 62 62 60 57 54 55 56 57 59 62 64 65 65 64 62 62 59 55 55 55
99 98 98 100 101 104 105 102 95 90 89 86 85 85 86 95 98 84 73 68 68 67 62 58 61 61 59 59 58 55 54 57 62 64 64 66 65 64 61 60 57 53 53 52
93 93 94 98 104 107 107 104 103 103 101 94 82 77 77 76 81 79 74 66 64 68 64 58 58 59 58 59 60 57 55 54 58 62 67 68 66 63 59 59 59 58 57 58
88 86 83 80 80 91 98 104 108 106 105 104 95 84 83 80 77 74 72 69 66 67 65 60 60 64 65 64 63 60 58 57 56 56 57 57 59 64 66 65 61 58 56 54